Location: ????????
(38.4362°N, 22.8767°E)
Time: 02:49:55
(UTC+00:00)

Cosmos 1603 - Visible Passes

Search period start: 19 July 2024 00:00
Search period end: 29 July 2024 00:00
Orbit: 829 x 860 km, 71.0° (Epoch: 18 July)

Date Brightness Start Highest point End Pass type
(mag) Time Alt. Az. Time Alt. Az. Time Alt. Az.
19 Jul 5.6 19:09:00 10° NW 19:13:33 25° WSW 19:18:04 10° SSW visible
20 Jul 5.6 18:54:44 10° NW 18:59:22 26° WSW 19:03:56 10° SSW visible
21 Jul 5.6 18:40:28 10° NW 18:45:10 27° WSW 18:49:49 10° SSW visible
22 Jul 5.6 18:26:12 10° NW 18:30:58 28° WSW 18:35:41 10° SSW visible
23 Jul 5.6 18:11:56 10° NW 18:16:46 30° WSW 18:21:33 10° SSW visible
